Hourly Data Report for October 16, 2016

All times are specified in Local Standard Time (LST). Add 1 hour to adjust for Daylight Saving Time where and when it is observed.

CLYDE RIVER A
NUNAVUT

70°29'09.000" N
68°31'01.000" W
26.50 m
2400804
71090
YCY

Download Data

Hourly Data (October 2016)
Hourly Data Report for October 16, 2016
Temp Definition
°C
Dew Point Temp Definition
°C
Rel Hum Definition
%
Wind Dir Definition
10's deg

Wind Spd Definition
km/h
Visibility Definition
km
Stn Press Definition
kPa
Hmdx Definition


Wind Chill Definition


Weather Definition


TIME
00:00 Legend Double Dagger -9.5 -12.7 78 28 9 16.1 100.65   -14 LegendNANA
01:00 Legend Double Dagger -8.5 -12.4 74 27 11 16.1 100.67   -14 LegendNANA
02:00 Legend Double Dagger -8.3 -12.3 73 25 8 16.1 100.70   -12 LegendNANA
03:00 Legend Double Dagger -7.5 -12.3 69 27 13 16.1 100.70   -13 LegendNANA
04:00 Legend Double Dagger -7.6 -12.3 70 29 11 16.1 100.74   -13 LegendNANA
05:00 Legend Double Dagger -7.5 -12.5 68 27 11 16.1 100.75   -13 LegendNANA
06:00 Legend Double Dagger -8.2 -12.8 70 26 13 16.1 100.79   -14 LegendNANA
07:00 Legend Double Dagger -8.5 -13.0 70 26 9 16.1 100.81   -13 LegendNANA
08:00 Legend Double Dagger -8.7 -12.6 74 26 8 16.1 100.84   -13 LegendNANA
09:00 Legend Double Dagger -8.0 -12.0 73 25 9 16.1 100.86   -13 LegendNANA
10:00 Legend Double Dagger -8.7 -13.1 71 27 13 16.1 100.88   -15 LegendNANA
11:00 Legend Double Dagger -8.9 -12.9 73 28 11 16.1 100.88   -14 LegendNANA
12:00 Legend Double Dagger -6.7 -12.3 65 27 11 16.1 100.90   -12 LegendNANA
13:00 Legend Double Dagger -9.1 -13.1 73 30 13 16.1 100.94   -15 LegendNANA
14:00 Legend Double Dagger -7.3 -12.8 65 28 9 16.1 100.97   -12 LegendNANA
15:00 Legend Double Dagger -8.2 -13.4 66 27 11 16.1 101.02   -13 LegendNANA
16:00 Legend Double Dagger -9.2 -13.7 70 27 13 16.1 101.05   -15 LegendNANA
17:00 Legend Double Dagger -9.1 -14.2 67 27 13 16.1 101.07   -15 LegendNANA
18:00 Legend Double Dagger -9.0 -14.4 65 26 11 16.1 101.10   -14 LegendNANA
19:00 Legend Double Dagger -8.2 -14.4 61 27 11 16.1 101.11   -13 LegendNANA
20:00 Legend Double Dagger -9.4 -15.3 63 27 11 16.1 101.11   -15 LegendNANA
21:00 Legend Double Dagger -9.8 -16.0 61 27 13 16.1 101.11   -16 LegendNANA
22:00 Legend Double Dagger -9.7 -15.4 63 26 15 16.1 101.09   -16 LegendNANA
23:00 Legend Double Dagger -10.4 -14.9 70 25 13 16.1 101.09   -17 LegendNANA

Notes on Data Quality.

Legend

  • E = Estimated
  • M = Missing
  • NA = Not Available
  • ‡ = Partner data that is not subject to review by the National Climate Archives
Date modified: